Location: Barcelona
(41.3830°N, 2.1830°E)
Time: 07:10:11
(UTC+01:00)

ISS - Pass Details

Date: 25 November 2020
Orbit: 418 x 420 km, 51.6° (Epoch: 04 December)

Event Time Altitude Azimuth Distance (km) Brightness Sun altitude
Rises 18:54:52 0° 273° (W) 2,358 1.5 -16.6°
Reaches altitude 10° 18:57:19 10° 291° (WNW) 1,496 -0.1 -17.1°
Maximum altitude 18:59:56 21° 342° (NNW) 1,008 -1.8 -17.6°
Enters shadow 19:00:49 19° 5° (N) 1,075 -1.9 -17.7°
